Theta_e
364 363 364 361 362 360 356 351 325 327 329 318 320 321 317 328 327 326 324 328 326 332 334 336 334 332 331 330 334 333 334 327 329 323 324 340 352 352 355 356 357 356 358 360 361 360 358 360 361 361 358 360 361 361 362 362 361 361 362 362 362 363 364 363 363 363 363 363 364 365 365 365 366 365 365 366 366 366 367 366 366 366 366 366 364 364 363 364 365 366 366 365 365 363 364 364 362
362 363 359 360 359 355 341 347 326 322 323 318 319 323 323 326 327 324 324 327 328 331 336 336 336 336 336 336 335 333 331 335 338 337 343 350 351 352 355 357 356 355 357 360 363 362 359 364 362 361 359 361 363 364 363 363 363 363 363 362 364 364 364 363 363 363 363 363 363 364 365 365 365 365 365 365 365 366 365 365 366 366 366 365 363 363 362 363 364 365 365 365 364 364 361 364 363
364 362 357 359 358 353 346 341 318 318 315 313 319 321 328 325 325 328 329 329 332 335 336 335 336 334 333 334 330 331 326 340 339 341 342 348 344 350 356 358 358 359 361 362 363 363 363 364 363 362 360 362 363 363 363 363 364 364 364 364 365 364 364 363 364 364 364 363 363 363 364 364 364 364 364 364 364 365 365 365 366 366 366 365 363 363 363 362 362 362 363 363 364 363 364 364 364
365 361 357 356 346 354 334 326 322 316 312 313 316 326 326 326 327 330 332 332 333 334 334 332 330 336 333 329 331 337 334 336 342 341 341 346 351 354 356 358 360 360 362 363 362 363 365 364 363 362 362 362 362 359 360 363 364 364 363 364 364 364 364 365 365 364 364 363 363 362 362 363 364 364 364 365 365 365 365 367 366 366 366 365 365 363 362 363 362 361 361 362 363 364 364 364 364
359 359 360 356 348 329 328 320 318 317 311 315 312 325 328 329 329 331 332 334 333 333 332 333 332 338 339 334 337 332 334 340 341 345 344 350 355 356 357 358 359 359 360 363 363 364 366 362 362 362 362 363 362 360 361 361 364 363 363 363 364 364 365 365 365 364 363 363 363 362 362 363 364 364 364 364 364 365 365 366 366 366 366 365 362 360 362 362 362 363 363 362 362 362 363 364 364
357 356 360 356 342 342 333 318 312 311 318 320 317 321 328 331 330 331 332 334 334 334 333 331 330 331 331 334 339 335 341 333 342 344 347 348 354 356 357 359 357 358 360 362 363 366 363 362 361 362 363 363 364 364 363 363 363 363 364 364 364 365 365 364 364 364 363 363 362 361 361 363 364 364 364 364 363 364 365 365 365 365 365 361 363 361 362 362 362 363 362 361 361 361 362 363 363
353 354 352 353 347 341 317 314 314 313 317 323 319 323 326 329 331 332 332 332 334 334 335 332 335 334 330 336 341 343 347 345 344 345 349 353 355 356 357 358 358 357 359 362 363 364 364 362 362 362 362 363 364 365 363 363 363 364 364 364 363 364 365 364 364 363 363 362 361 361 362 363 363 364 364 364 364 364 365 364 365 364 364 363 362 361 359 361 362 361 361 361 361 361 361 361 361
362 349 343 336 321 324 315 314 315 317 317 325 325 324 328 329 331 330 331 329 328 328 332 333 334 333 331 341 332 344 347 349 349 352 353 355 355 357 359 359 357 357 358 362 364 364 366 362 361 361 362 363 364 364 364 364 364 365 364 364 364 363 363 363 363 363 362 362 361 362 363 363 363 364 364 364 364 364 364 364 364 364 364 364 364 362 361 361 361 360 361 361 360 360 361 360 360
355 348 345 335 319 319 315 313 314 321 322 325 326 330 332 331 332 330 329 331 331 332 332 332 334 329 332 336 336 344 347 350 351 354 354 354 355 358 358 357 356 356 358 360 363 365 366 363 362 361 361 363 364 364 364 364 364 364 364 364 364 363 363 363 362 362 362 362 362 363 362 362 363 363 363 363 363 363 363 363 364 364 364 363 362 360 361 360 360 360 360 359 358 358 360 359 360
351 347 332 327 322 314 314 315 315 318 321 326 326 328 330 330 330 331 329 328 330 331 332 335 334 331 336 332 335 341 345 350 351 352 354 355 357 358 358 358 358 357 358 361 363 364 364 364 362 361 362 363 363 363 364 363 364 365 364 363 363 363 363 362 362 362 362 363 363 363 363 363 363 364 363 364 364 363 363 363 364 364 363 363 362 361 361 361 360 360 360 359 358 358 357 358 359
342 343 338 323 316 313 314 313 316 320 321 326 326 330 331 331 329 329 330 330 332 332 333 335 333 333 335 335 340 349 351 351 350 349 354 356 358 357 356 358 358 359 359 360 362 365 365 364 362 361 362 363 364 363 364 363 364 364 364 364 364 363 363 363 362 362 362 363 363 363 364 364 364 364 363 363 363 363 363 364 363 362 363 363 361 362 361 356 358 358 357 358 357 358 357 357 358
336 332 330 319 315 315 315 315 316 318 322 324 323 329 332 330 330 327 329 327 331 331 330 335 331 337 332 334 337 346 349 350 350 352 354 356 356 357 358 358 358 359 360 361 362 365 365 365 364 363 362 363 364 363 364 365 365 364 364 364 364 363 363 363 363 363 364 363 363 363 363 363 363 363 363 363 364 363 364 362 362 363 363 364 364 362 357 353 356 357 357 356 356 357 357 357 358
339 332 325 318 316 317 318 317 317 319 318 321 322 329 331 329 327 327 329 329 331 329 329 337 338 338 329 332 341 345 345 349 352 354 355 356 356 357 359 358 359 359 360 363 360 360 361 361 364 366 364 363 363 363 363 365 365 364 364 364 364 364 364 364 364 364 364 364 364 364 363 363 363 363 363 363 362 363 362 362 363 364 364 364 362 363 359 355 356 356 357 357 357 356 357 357 357
337 331 326 317 321 318 317 317 319 316 316 320 327 329 331 328 328 329 329 327 328 328 334 341 339 338 333 336 337 340 344 351 354 356 357 358 358 358 358 358 358 360 361 363 363 364 364 365 363 364 366 367 367 364 363 365 365 365 365 364 364 364 364 364 364 364 364 364 364 364 364 363 362 363 364 363 363 363 361 362 362 363 362 360 361 363 356 355 355 356 356 356 357 356 357 357 358
336 333 325 322 318 318 320 317 317 317 314 322 327 329 329 332 331 330 329 326 328 339 339 342 341 336 329 332 332 337 345 352 355 357 358 359 359 359 358 357 359 360 361 360 363 364 364 364 363 365 368 366 368 367 367 367 364 365 364 364 364 365 365 365 364 364 365 364 364 364 364 363 363 364 364 364 363 362 363 362 364 363 361 359 362 361 357 354 354 355 356 356 356 356 357 358 360
341 333 326 319 315 316 317 319 321 318 316 324 328 330 329 331 333 329 330 331 335 339 338 334 342 335 336 336 338 342 347 353 356 357 357 358 358 358 357 357 358 360 362 361 362 364 364 364 365 364 366 366 366 365 366 367 366 365 365 365 365 365 365 364 365 365 364 364 364 364 364 366 365 366 364 365 363 363 363 363 361 363 361 362 363 362 361 359 358 358 357 356 356 357 358 359 360
342 335 321 319 314 316 318 319 320 315 322 325 329 329 326 326 333 334 340 340 332 332 334 337 336 338 337 341 343 345 349 355 356 356 355 355 354 352 353 354 355 359 361 363 364 363 363 364 365 364 366 366 364 366 365 366 366 366 366 365 365 365 365 365 364 364 365 365 365 365 365 367 368 370 369 365 365 365 364 362 362 361 359 363 363 364 362 360 360 361 360 359 359 359 360 360 361
338 326 321 317 318 317 321 320 322 324 322 326 328 329 327 326 330 335 337 333 331 332 334 336 340 338 343 345 347 347 350 352 353 352 350 351 352 349 350 352 352 354 356 359 364 363 361 364 364 364 364 365 364 366 365 367 367 366 367 368 367 367 366 365 367 366 364 365 363 365 367 366 366 367 367 360 362 362 362 362 361 358 361 364 363 362 361 357 356 358 360 360 360 362 360 363 364
330 326 322 316 319 321 324 325 325 323 323 327 329 329 327 327 329 333 328 328 331 329 332 335 334 341 344 345 346 346 349 350 350 349 348 348 348 348 349 351 352 352 354 355 359 361 361 362 363 362 364 365 365 367 366 366 367 368 367 366 366 365 366 367 365 365 366 366 367 365 366 367 365 367 366 364 363 360 356 358 360 360 360 361 361 359 360 353 354 356 354 355 358 360 366 358 358
332 326 319 319 324 323 325 325 325 326 327 327 328 329 328 330 330 333 328 328 330 327 328 331 334 336 340 343 345 345 347 347 348 348 346 348 347 346 348 350 351 353 354 355 356 359 359 359 362 362 364 365 365 364 365 365 367 370 365 364 365 365 366 366 366 366 366 368 368 369 365 367 366 367 361 362 358 357 360 365 363 362 362 363 358 362 360 354 354 356 353 356 362 359 361 356 357
331 326 320 321 325 322 324 326 327 327 329 328 329 329 328 330 332 330 329 326 327 328 331 331 333 337 341 343 344 345 345 346 347 347 346 347 348 348 348 350 350 353 355 356 357 358 360 360 360 362 364 365 364 364 364 363 368 363 362 362 365 363 364 364 364 366 366 367 367 366 365 365 365 364 364 362 359 360 359 360 360 362 366 367 360 365 362 360 357 359 359 357 359 359 358 358 358
330 326 326 325 326 323 325 327 328 327 329 329 330 327 327 333 333 329 329 324 322 327 332 333 336 339 341 341 344 345 344 344 344 345 344 345 345 348 347 350 351 353 355 355 354 358 359 360 360 361 364 365 365 365 363 365 367 361 364 362 363 364 363 363 365 365 364 365 365 364 365 366 365 365 366 364 362 362 360 356 359 362 365 366 367 363 361 360 358 359 359 359 358 359 358 358 357
320 325 326 327 327 324 326 327 327 329 328 328 328 329 332 330 329 330 329 325 326 331 333 335 338 341 343 344 345 343 344 343 344 344 345 345 346 346 347 348 348 349 353 354 356 357 358 359 361 361 360 364 365 365 364 365 362 364 363 363 362 359 361 362 362 363 365 367 367 367 362 361 362 361 363 364 363 362 359 357 358 363 365 364 366 360 361 360 358 358 359 360 360 357 357 357 357
323 321 325 326 327 326 327 326 328 329 328 327 331 332 330 329 324 329 328 328 329 334 336 337 341 342 343 342 344 344 344 344 344 345 346 346 346 346 348 347 349 351 352 353 355 357 358 358 362 361 361 362 363 364 364 362 365 363 364 365 364 360 360 360 360 361 365 367 370 368 365 363 361 361 363 362 363 364 361 362 363 361 363 361 365 362 359 357 357 358 361 361 359 360 356 358 356
322 321 325 325 326 327 328 327 327 329 329 331 331 329 329 329 327 329 328 329 331 334 339 340 341 341 341 342 343 344 345 345 345 346 347 349 348 349 349 350 351 351 351 352 354 356 357 359 361 361 361 363 362 362 362 361 365 366 365 364 362 362 363 361 362 365 364 365 366 368 368 363 362 362 362 363 363 364 363 363 360 360 363 362 363 359 360 359 358 359 359 358 359 359 357 357 355
325 324 325 325 325 326 327 327 327 328 329 331 329 328 330 330 332 327 329 330 333 337 339 340 341 339 339 341 343 345 346 345 346 346 346 349 349 348 348 350 351 350 352 355 354 355 358 359 359 360 361 363 362 360 362 363 365 364 366 367 367 365 362 363 365 363 362 363 363 368 367 365 363 360 361 362 362 362 362 364 363 361 360 362 361 360 361 358 357 358 359 359 358 358 356 355 352
325 325 325 324 324 325 326 325 325 328 328 331 327 326 328 332 329 321 329 332 336 337 338 340 340 338 339 341 343 346 346 346 346 347 348 349 348 348 349 350 351 352 354 355 355 355 358 359 359 360 361 363 362 359 361 363 366 366 366 366 367 368 366 366 365 364 363 363 363 368 371 367 363 361 362 363 364 362 363 364 362 363 361 363 363 361 362 361 359 358 360 357 356 355 352 352 351
321 321 322 322 323 324 324 324 324 327 326 332 329 326 331 334 329 321 328 333 337 336 337 339 339 339 339 341 342 347 348 349 348 348 346 347 347 348 349 350 352 353 353 354 355 358 357 358 358 360 361 363 363 360 362 362 364 364 367 366 365 368 369 367 366 367 364 363 366 367 370 368 366 364 365 367 365 363 363 364 364 364 364 363 364 362 361 360 358 359 361 360 359 359 353 351 351
320 320 316 318 319 318 321 320 323 328 327 332 330 329 327 329 324 326 332 336 336 336 336 338 338 339 340 341 341 345 346 347 348 347 347 349 350 350 351 353 353 353 354 355 355 356 354 357 358 361 362 363 364 361 360 362 364 365 365 366 367 368 370 369 367 366 366 367 368 370 369 369 369 366 364 367 367 365 365 366 364 365 365 365 365 366 364 363 360 360 359 359 358 354 350 349 351
320 319 318 317 318 317 322 323 325 327 330 331 331 316 320 325 328 329 336 335 335 335 336 336 337 339 340 342 342 345 345 346 347 348 349 350 350 351 352 354 354 352 352 354 356 355 355 356 356 358 360 361 364 361 361 360 362 363 364 364 367 370 368 367 367 368 367 367 369 369 369 371 368 366 368 369 368 367 366 366 366 364 364 367 366 368 362 361 359 360 358 356 350 349 347 349 346
314 317 318 314 314 314 323 323 327 324 331 330 331 314 316 322 328 332 337 336 334 333 335 335 337 338 340 341 342 344 345 349 349 350 350 352 353 353 353 354 353 353 353 354 356 358 359 357 357 357 360 361 363 362 361 361 362 361 361 364 364 367 366 366 365 367 367 368 368 366 370 370 373 372 372 371 369 367 364 363 364 365 367 368 365 363 363 362 361 358 354 352 350 347 347 349 349
316 313 311 315 312 315 322 326 326 321 329 332 327 316 317 321 327 335 337 335 334 333 335 335 337 338 340 341 342 344 345 348 350 350 350 351 353 353 352 352 353 353 354 356 357 359 359 359 361 357 360 361 362 363 363 362 361 363 363 363 365 369 364 365 365 365 366 365 366 367 369 371 372 374 372 371 369 366 364 364 363 367 366 366 364 365 364 360 360 358 354 350 347 347 349 348 349
316 314 312 312 314 317 320 324 327 327 328 330 326 316 320 320 329 335 337 335 334 332 334 336 337 338 339 341 342 343 344 346 348 349 351 352 353 354 352 353 353 355 356 359 359 361 361 360 363 359 357 361 362 363 364 363 363 364 365 365 366 367 366 367 367 367 367 368 369 366 367 370 371 371 371 370 367 365 363 365 365 366 367 364 363 363 361 359 357 351 352 351 351 348 347 348 347
312 316 312 315 313 315 314 324 326 327 328 323 326 320 321 326 331 335 336 335 334 332 333 336 337 338 340 341 341 342 344 345 346 349 351 353 354 356 354 354 354 356 358 359 361 361 362 361 362 362 358 358 362 362 364 363 364 365 364 364 366 366 367 365 366 368 370 368 369 369 370 370 369 370 371 369 366 363 358 362 363 365 365 363 362 361 360 358 354 352 350 352 351 350 347 346 346
310 313 312 312 315 316 314 318 323 326 327 323 324 322 321 325 331 334 335 336 334 333 333 335 337 338 340 341 341 341 343 344 346 351 352 355 355 357 354 355 355 356 357 359 360 362 362 361 360 362 361 360 361 365 366 366 365 368 366 367 367 368 370 369 367 368 368 370 368 370 371 370 369 369 369 369 365 365 362 359 362 363 363 363 362 360 358 353 352 352 351 351 352 351 348 348 347
313 315 313 313 312 313 314 320 325 326 324 322 322 320 320 324 329 332 335 335 334 334 336 335 337 338 340 341 341 341 342 344 347 351 353 355 355 355 355 356 356 357 357 358 361 361 362 362 361 362 363 361 364 369 368 363 363 364 362 365 365 367 369 368 369 368 367 367 367 368 369 370 369 368 368 367 363 362 362 363 359 363 363 361 359 355 350 350 350 351 351 351 350 350 350 346 347
316 316 315 313 313 315 317 320 325 328 325 321 322 322 322 323 327 333 335 336 335 335 335 336 337 337 338 340 340 341 342 343 347 350 351 353 353 355 356 355 356 356 358 358 359 360 361 360 360 360 364 364 363 367 366 362 362 363 364 361 358 362 366 368 367 366 366 366 368 369 369 368 368 367 366 366 363 360 363 364 363 363 362 360 357 351 352 352 353 353 352 352 349 348 346 347 347
316 315 314 313 314 312 317 319 326 328 322 320 323 322 323 324 327 332 337 336 333 334 335 336 337 338 339 340 340 341 343 345 346 347 350 352 352 353 354 354 355 353 356 357 358 359 361 362 361 361 362 365 364 364 364 364 364 364 362 359 357 358 362 363 366 366 366 366 370 371 370 370 368 367 366 367 365 364 364 361 362 362 360 354 353 354 354 351 351 350 349 346 349 346 345 344 346
315 314 314 313 313 316 320 322 327 328 323 319 323 321 321 325 327 332 334 335 336 337 337 337 338 339 340 340 341 342 343 344 345 347 349 349 350 352 354 354 355 355 356 356 359 360 361 361 362 363 362 363 364 366 365 364 365 367 364 360 359 357 362 367 366 367 367 364 366 371 370 369 369 368 368 367 361 360 360 361 359 358 355 354 353 353 352 350 349 347 348 346 342 346 345 347 348
314 314 312 311 315 313 312 321 325 327 323 318 322 321 323 327 329 330 334 335 337 338 338 338 340 340 341 341 342 342 343 344 344 346 347 348 348 350 353 355 356 356 356 356 357 358 359 361 363 363 364 365 364 366 366 367 367 368 369 367 366 363 362 363 364 365 366 365 364 368 370 369 364 361 360 359 360 360 359 358 356 354 355 356 354 351 351 350 349 348 347 348 347 341 339 341 346
314 314 313 313 314 315 315 317 322 327 326 324 321 320 321 323 322 325 332 335 335 336 337 339 340 342 343 344 343 344 343 345 345 346 348 348 347 347 351 355 356 356 356 356 356 357 358 361 363 365 364 365 365 365 367 368 368 369 371 371 370 369 365 362 360 358 360 361 360 360 360 362 362 360 359 359 358 359 359 358 356 354 354 354 354 352 349 349 350 349 349 347 346 342 338 339 344
312 315 315 315 316 316 317 318 319 318 318 323 319 311 312 320 321 322 328 331 332 335 336 337 339 341 343 342 342 344 344 347 348 347 347 347 347 347 350 353 354 355 356 357 357 358 360 361 364 365 365 365 364 366 368 368 366 363 367 363 357 356 355 356 353 354 354 356 356 357 360 359 359 360 359 358 359 358 359 357 356 354 353 354 353 350 351 349 349 348 347 347 345 346 344 337 338
310 312 317 317 317 316 317 316 317 311 309 318 322 310 307 317 317 321 324 327 330 335 334 336 339 341 341 342 342 342 342 344 349 349 348 346 347 347 348 351 353 353 355 357 358 359 361 362 365 366 366 366 366 366 368 368 365 363 362 360 358 356 354 355 359 358 357 358 360 360 358 360 361 359 358 359 359 359 358 357 357 355 354 353 353 352 350 348 347 349 349 348 346 347 345 340 338
309 317 318 318 316 315 316 317 316 313 318 318 320 318 310 308 315 321 325 325 327 333 334 335 336 341 339 342 342 343 342 344 346 349 349 348 347 347 348 351 353 352 355 356 357 359 361 364 365 366 366 366 367 368 367 368 364 363 363 362 360 358 356 357 359 361 362 362 359 360 359 358 361 360 358 360 360 360 359 357 357 355 353 352 351 350 349 348 349 350 350 349 349 348 345 342 339
312 317 318 316 316 317 317 316 315 315 314 310 313 317 311 310 316 323 325 322 325 330 333 335 336 338 340 341 341 342 343 344 345 347 348 348 348 348 349 350 353 353 353 355 357 359 361 364 366 367 366 368 367 369 369 368 366 364 363 362 359 361 361 359 359 360 359 361 359 360 359 357 360 359 359 359 360 360 358 357 357 356 355 352 352 349 347 348 349 349 349 348 347 347 346 345 343
314 317 319 318 317 316 316 314 314 313 310 306 311 314 308 308 314 318 325 323 324 328 332 334 338 338 340 340 341 342 344 345 345 347 349 349 350 350 350 351 352 352 354 358 358 359 361 364 366 367 367 367 368 369 370 369 368 366 363 362 361 360 361 361 359 358 360 361 360 359 359 359 357 357 357 358 360 360 358 358 356 356 354 349 348 347 347 347 348 349 349 348 347 346 347 345 344
317 316 315 315 315 314 316 315 314 311 305 309 313 313 312 305 312 314 317 322 324 322 326 333 338 340 340 341 342 341 342 344 344 345 348 350 351 351 351 351 352 353 353 355 357 359 361 363 365 367 369 368 369 368 370 368 368 367 365 364 363 362 362 361 359 359 359 360 359 358 359 358 357 357 356 359 358 359 359 358 356 354 351 349 348 347 347 345 345 346 347 348 347 346 345 344 343
315 313 312 312 312 315 314 313 315 305 303 311 314 312 313 303 309 315 321 326 324 322 321 323 330 338 340 342 341 341 343 344 345 345 345 348 350 351 351 350 352 354 355 355 357 360 361 362 365 367 369 370 369 369 369 367 366 366 366 365 363 364 363 360 360 360 360 359 358 357 358 358 357 356 357 355 356 353 357 355 355 352 349 348 347 349 347 346 345 345 346 347 346 346 347 345 344
312 311 311 306 305 306 302 306 302 303 303 310 313 313 310 309 314 318 320 322 324 325 323 323 324 334 341 342 343 342 342 343 344 346 346 346 348 349 349 351 354 356 356 357 357 357 360 363 366 366 368 371 370 370 369 370 367 366 366 365 364 364 365 364 363 362 362 359 358 357 358 356 357 356 355 354 353 354 354 354 353 349 347 348 349 349 347 348 347 344 346 345 344 344 343 345 342
309 308 308 305 301 300 296 301 305 305 309 313 313 315 308 314 317 321 319 322 325 325 326 326 328 330 341 343 344 342 342 343 344 345 346 347 348 349 350 351 354 356 357 357 359 358 359 362 365 365 367 370 372 371 370 369 369 368 368 366 365 363 363 364 363 362 363 362 361 360 357 356 357 356 355 355 354 354 352 353 352 350 352 350 349 349 348 348 347 346 345 344 343 344 344 344 344
309 312 310 308 306 302 298 301 299 301 304 309 313 309 307 307 311 320 322 325 325 325 324 328 331 334 337 343 344 343 343 344 345 346 346 347 348 350 350 351 354 356 356 356 358 360 361 362 364 366 366 369 371 371 370 369 369 369 369 367 364 364 362 362 363 364 364 363 363 362 362 359 357 358 356 358 358 356 355 353 352 350 349 350 348 347 346 347 347 347 345 345 344 344 345 344 343
310 311 313 308 307 312 303 306 305 305 304 305 309 308 313 311 321 327 327 324 324 325 326 329 332 334 335 338 340 341 342 343 344 346 346 348 350 351 350 351 353 355 358 357 359 361 360 362 364 367 367 368 370 371 370 370 370 370 369 367 364 364 364 364 364 365 367 366 366 364 363 362 360 359 359 359 357 356 355 352 351 350 351 349 347 347 346 345 346 345 344 344 344 344 344 344 344
308 309 305 309 316 312 308 309 310 309 307 303 312 312 313 317 319 322 323 322 322 323 324 326 328 332 336 337 338 340 341 343 345 345 347 350 351 352 351 353 352 354 355 356 359 362 362 362 364 366 368 368 370 372 370 371 371 370 369 367 365 364 362 363 363 364 364 366 366 365 362 362 362 361 359 358 357 356 355 353 351 348 349 349 346 346 345 345 346 345 344 344 343 341 345 345 342
311 304 308 315 318 315 310 302 306 304 300 303 308 307 309 308 305 319 319 317 318 320 321 321 327 332 333 335 338 340 341 343 346 348 350 350 351 352 352 352 353 354 355 357 360 363 363 363 364 365 367 367 369 370 370 370 370 369 369 367 366 365 363 363 364 365 366 365 367 366 364 361 360 359 358 356 356 354 353 352 350 348 348 348 346 345 345 344 344 342 343 343 343 345 344 345 344
311 310 316 308 304 303 309 308 299 299 298 301 305 308 309 310 310 315 317 317 318 320 322 322 322 330 333 335 337 340 341 342 344 346 348 350 351 352 353 352 352 355 358 359 360 362 363 364 365 363 366 367 367 368 370 370 371 369 368 367 367 365 366 365 365 366 367 365 365 365 363 361 361 360 357 356 354 353 351 350 350 348 347 347 346 344 344 344 344 343 342 341 343 344 342 342 343
313 315 312 315 311 307 305 307 308 306 300 300 301 306 304 314 314 316 317 319 320 320 320 320 321 324 334 336 337 338 340 341 342 344 346 349 350 351 352 351 351 354 356 357 358 359 359 362 364 364 365 368 369 369 370 369 370 369 369 369 368 367 367 365 365 365 365 364 365 363 362 358 357 356 355 355 353 351 351 349 348 346 346 346 344 343 342 343 344 344 343 340 341 343 342 341 340
305 306 307 309 310 313 311 311 307 304 302 301 301 300 306 314 318 317 318 320 321 320 320 322 322 323 325 337 337 339 341 341 343 344 346 348 350 350 351 353 353 354 357 357 356 357 357 359 361 362 364 364 365 367 368 370 370 369 370 369 368 366 364 363 363 366 365 366 365 363 361 358 357 354 354 352 351 350 349 349 348 348 347 347 346 344 343 343 344 344 343 343 343 343 341 340 340
307 306 304 307 307 305 302 301 311 309 304 299 300 300 309 317 320 321 319 321 320 322 321 321 323 323 326 332 338 340 341 344 344 344 345 346 349 350 351 353 354 353 354 355 354 356 356 357 357 360 360 361 360 364 368 370 371 370 369 369 368 366 364 363 364 364 364 365 364 362 362 358 357 356 354 351 351 348 347 348 347 348 348 347 346 346 343 342 343 343 343 342 341 342 342 340 340
Wind_Speed
11 10 8 6 5 5 3 4 3 4 4 7 6 3 8 7 9 9 9 7 6 6 5 5 7 5 3 6 9 9 7 4 4 1 5 5 7 9 9 8 9 10 10 9 10 12 12 12 13 14 15 15 13 13 13 13 13 14 13 13 12 12 12 11 11 11 10 10 10 10 10 10 9 9 9 10 10 10 10 10 10 10 11 11 11 11 11 11 11 10 11 12 11 11 11 11 11
9 7 6 6 6 4 2 3 3 5 6 8 8 7 8 8 7 8 9 6 7 7 7 7 6 6 7 10 10 11 8 6 4 6 7 9 10 9 9 9 10 11 10 10 11 11 13 13 13 14 14 13 12 10 12 12 11 11 12 12 11 11 11 11 10 10 10 9 9 9 9 9 9 9 9 9 9 9 9 10 10 10 10 10 10 11 11 11 11 11 10 10 10 10 10 9 10
7 7 5 6 6 6 6 2 1 4 6 8 8 9 6 7 9 7 8 9 10 10 9 9 8 7 10 10 8 4 6 4 9 11 9 10 11 7 9 10 10 12 12 10 11 11 10 12 10 14 14 14 11 10 9 11 10 10 10 11 11 11 10 10 10 9 9 9 8 8 8 8 8 8 8 8 9 9 9 10 10 9 9 10 10 10 11 11 11 10 9 9 9 9 9 9 9
6 6 4 3 3 5 4 3 3 5 7 7 7 6 5 8 9 9 9 10 10 9 8 7 6 4 3 5 7 9 10 8 8 10 9 7 7 10 10 11 11 10 10 9 10 11 10 12 11 12 13 14 13 11 8 9 9 10 10 11 11 11 10 9 9 9 8 8 7 7 7 8 7 7 8 8 8 9 9 10 9 9 9 10 10 10 10 10 11 10 9 8 8 8 8 9 9
6 4 4 5 6 1 4 5 2 3 7 5 7 5 7 8 10 10 10 8 7 6 5 7 7 8 11 8 2 2 7 9 9 7 8 8 10 11 11 11 10 10 10 10 9 10 12 15 14 11 11 14 14 13 11 9 9 9 10 11 11 11 10 9 9 8 8 7 7 7 7 7 7 7 7 8 8 9 9 9 9 8 9 9 10 10 9 10 10 9 9 9 8 8 8 8 9
5 4 4 5 3 5 6 3 8 9 7 4 7 7 6 7 9 10 10 6 6 4 5 4 3 8 6 7 6 8 8 6 8 8 9 9 11 12 12 11 11 10 10 10 9 8 12 15 13 11 9 12 13 12 11 10 11 9 9 10 10 10 10 10 9 8 7 7 7 7 7 7 7 7 7 8 8 8 8 8 8 8 8 9 10 9 10 9 9 10 9 9 9 8 8 9 8
4 4 4 6 6 4 2 7 7 8 7 5 8 9 8 8 9 10 10 9 6 6 2 6 9 11 8 7 11 8 5 9 7 9 9 12 12 12 12 11 11 12 11 9 9 9 13 14 13 11 10 10 13 12 11 9 11 10 9 10 9 10 10 10 9 8 7 7 6 7 7 7 7 7 7 7 7 7 7 7 7 8 9 9 9 10 10 9 9 9 9 10 10 10 9 9 9
1 5 2 6 3 5 6 8 7 6 7 7 7 9 8 9 9 8 10 7 9 6 6 9 5 4 11 6 6 7 7 5 11 13 14 12 13 12 11 11 12 12 11 10 9 10 14 13 11 10 9 9 12 11 11 11 11 11 10 10 9 10 9 9 9 8 8 7 7 7 7 6 6 7 7 7 6 6 6 7 7 8 9 9 10 10 9 9 9 8 8 9 9 8 9 10 10
4 6 2 6 1 2 6 8 9 5 8 6 8 9 6 8 6 7 7 5 8 8 8 7 8 8 7 9 9 8 7 10 13 14 13 14 13 12 9 11 11 11 11 10 10 11 11 13 11 10 9 8 11 10 11 11 11 11 10 10 9 10 9 9 9 8 8 7 7 7 7 6 6 6 6 6 6 5 5 6 7 8 9 9 10 10 10 10 10 8 8 8 7 7 8 9 10
4 4 2 3 3 5 5 5 6 7 7 6 7 7 7 6 6 5 6 8 7 10 8 6 2 8 12 12 10 7 8 12 14 13 13 13 12 11 11 12 12 12 11 11 11 11 10 13 13 11 10 12 12 12 11 13 11 12 11 10 10 10 9 9 9 9 8 8 7 7 6 6 6 6 6 6 5 5 5 5 7 8 8 9 10 11 12 13 8 8 9 8 7 6 8 8 8
3 4 3 3 3 4 5 6 7 6 7 4 7 6 5 5 4 5 5 7 9 8 8 6 10 13 12 11 8 9 12 12 14 15 14 13 12 12 11 11 12 11 11 12 11 10 10 11 15 12 12 13 12 11 11 11 11 10 9 10 11 10 10 9 9 8 8 7 7 6 6 6 5 5 5 5 5 5 5 5 6 6 8 8 10 11 17 13 9 8 7 7 8 9 8 8 7
4 3 3 2 3 5 6 6 6 8 6 5 7 5 4 4 5 6 7 9 8 9 10 9 9 13 12 9 6 9 12 12 12 13 14 13 11 12 12 10 11 12 12 12 13 11 11 11 10 13 13 13 13 11 10 11 11 10 10 11 11 10 10 9 8 7 7 7 6 6 5 5 5 4 5 5 4 4 4 4 5 6 8 9 10 11 15 5 8 6 8 6 6 6 7 8 7
5 1 2 3 3 4 6 3 7 6 6 5 7 5 4 5 4 5 7 6 8 10 10 5 14 9 11 10 8 10 12 12 13 13 13 11 11 11 11 12 12 13 11 11 12 13 15 14 13 13 14 15 13 12 11 11 11 11 11 11 10 10 9 9 8 7 7 6 6 5 5 5 4 4 4 4 4 3 3 4 5 6 7 8 8 11 11 1 5 6 7 6 5 5 6 6 6
6 1 2 0 2 3 4 4 3 3 5 7 5 7 5 4 3 5 6 9 8 6 8 10 11 9 12 12 10 10 11 12 14 14 11 13 11 11 12 12 13 12 11 11 10 11 11 11 12 13 14 12 10 11 12 12 12 12 11 10 10 10 9 9 8 8 7 6 5 5 5 5 5 5 4 4 3 3 2 3 3 5 5 6 8 12 8 4 4 6 7 5 5 4 4 5 6
6 1 3 3 1 2 3 3 4 1 8 7 8 8 7 2 3 5 6 8 8 7 9 9 5 9 9 12 12 13 13 15 14 13 12 12 12 12 13 12 12 12 11 11 11 10 11 11 11 11 12 11 11 9 9 11 12 11 11 10 10 9 9 9 8 8 7 6 6 6 6 6 5 5 5 4 3 2 2 3 5 3 4 4 6 7 6 3 2 5 5 4 4 4 4 4 5
4 4 3 1 1 1 4 1 4 1 7 7 10 9 7 6 4 7 6 1 8 8 10 8 7 4 12 7 13 17 18 16 14 14 13 13 12 12 12 12 12 11 10 11 10 10 10 11 10 10 10 10 10 9 9 10 11 11 10 10 9 9 9 9 9 8 7 7 7 6 6 6 6 6 5 4 5 2 3 2 4 4 4 5 6 6 5 2 4 4 4 3 3 4 3 3 3
4 5 3 3 0 2 5 3 3 2 9 8 12 10 8 8 7 4 4 1 12 11 8 8 7 1 12 5 16 19 19 16 15 15 14 12 11 10 10 10 10 10 8 10 9 9 10 10 11 9 10 10 10 9 8 9 10 12 10 11 10 10 9 9 9 8 8 7 8 7 6 6 4 3 5 4 5 4 4 2 2 4 4 5 5 5 4 1 1 2 3 4 4 4 4 4 2
5 5 2 2 2 1 4 4 2 5 7 10 13 11 9 10 10 6 7 8 8 11 7 10 4 2 9 12 17 19 19 17 16 16 14 12 10 10 10 10 10 10 10 9 9 9 9 9 10 9 9 10 9 7 6 7 8 10 9 10 9 9 9 9 8 7 8 6 7 5 5 3 3 3 2 2 3 2 4 5 2 2 3 3 3 2 2 2 1 1 1 2 3 3 5 3 3
6 4 2 0 2 3 2 4 5 4 7 10 11 11 8 9 11 9 9 10 10 11 9 11 8 10 12 17 19 20 19 17 17 16 17 16 12 13 11 10 10 11 10 10 9 10 9 9 9 9 9 9 10 8 6 7 9 7 8 8 7 9 8 9 7 7 6 5 5 5 4 3 3 2 2 1 3 3 4 2 2 3 1 1 1 1 3 4 4 3 2 3 3 6 6 1 1
7 6 3 4 2 0 2 3 6 3 9 11 12 12 8 11 9 10 9 11 11 11 10 12 12 13 17 19 20 19 19 18 17 17 17 16 15 14 13 12 11 10 10 10 10 9 9 9 9 9 10 10 9 7 7 7 7 7 7 7 6 7 7 7 7 6 5 5 5 4 4 3 3 3 2 4 5 5 4 9 7 6 7 6 1 4 8 5 7 9 6 7 9 4 2 2 3
5 7 4 2 2 2 4 5 5 4 7 10 11 11 9 12 9 10 8 9 11 10 12 15 15 15 18 20 20 19 19 18 18 17 17 16 15 12 11 11 11 10 9 9 9 9 10 9 10 9 9 9 9 7 7 7 7 6 6 6 6 6 6 6 6 6 5 5 5 4 4 3 3 4 3 3 3 2 3 3 4 3 1 0 2 1 1 1 2 2 2 3 2 1 1 1 2
4 8 7 4 1 6 2 5 7 6 7 11 12 13 10 11 9 11 9 8 7 9 12 12 14 17 20 21 20 19 19 18 18 17 17 17 16 14 12 10 10 9 9 8 10 10 10 10 10 9 10 9 9 7 7 6 6 6 6 6 6 6 6 5 5 5 5 6 5 5 4 4 4 4 3 3 3 3 4 3 2 1 1 1 1 2 2 1 2 1 2 2 3 2 1 2 3
8 8 10 7 3 6 2 4 8 8 9 11 13 11 10 13 9 10 10 9 5 6 11 12 13 17 20 20 19 19 19 19 19 18 17 17 15 14 12 11 11 11 9 9 9 9 10 11 10 10 10 9 10 8 7 6 6 6 6 6 6 6 5 6 5 5 5 5 5 4 5 5 4 4 4 4 4 4 4 3 2 1 2 1 0 2 1 1 2 2 2 2 2 3 2 2 2
10 8 7 9 6 8 3 5 8 10 11 11 10 12 12 13 10 10 11 6 4 2 10 11 13 16 19 20 20 20 20 20 19 18 17 16 17 16 14 14 11 11 10 12 10 10 10 12 11 11 9 9 9 8 7 7 6 6 6 5 6 5 5 6 6 5 4 5 5 5 5 5 5 4 4 4 4 4 3 3 2 2 2 2 0 2 2 2 2 2 2 3 2 3 3 3 3
10 11 9 7 6 8 5 5 8 11 11 9 12 14 13 13 7 10 10 9 3 6 10 11 14 16 18 19 20 18 18 18 18 18 15 13 15 15 13 11 12 12 12 12 11 10 11 11 12 12 10 10 8 8 8 7 6 6 6 6 6 5 6 5 5 4 5 5 5 6 6 5 5 5 4 4 3 3 3 3 3 2 1 2 2 2 1 2 2 2 3 4 3 3 3 3 3
12 11 10 9 9 9 7 7 9 11 8 10 13 11 10 11 7 10 10 9 5 9 11 13 15 16 18 18 19 18 17 18 17 17 16 14 14 16 15 13 12 13 12 11 11 10 11 12 12 12 10 9 8 9 7 7 6 7 6 6 6 6 6 6 5 5 5 5 5 6 6 6 5 4 4 4 3 3 3 3 3 3 2 2 3 2 2 2 2 3 3 3 3 3 3 3 4
3 10 12 11 9 8 7 10 10 11 10 13 13 13 12 11 9 7 10 10 8 10 13 14 15 16 17 17 17 17 18 18 17 15 15 14 14 15 15 14 14 13 12 12 11 10 10 12 12 11 11 9 8 9 8 8 7 7 7 7 6 7 6 6 6 6 5 5 5 4 5 6 6 6 5 4 4 4 3 4 3 3 3 2 2 3 1 2 2 2 3 4 3 4 4 2 3
5 5 5 7 8 7 8 10 10 10 10 14 12 10 10 10 10 5 13 13 11 11 13 15 14 15 16 17 17 15 15 15 15 15 17 17 13 13 14 13 14 13 13 13 11 10 11 13 12 12 12 10 9 10 8 8 8 8 8 7 7 7 7 6 6 6 6 5 5 5 5 5 6 5 5 5 5 4 4 4 4 3 3 3 3 3 3 2 3 3 2 3 4 4 3 2 2
9 6 9 7 8 10 11 12 12 13 10 15 11 9 10 12 13 7 14 13 13 12 13 14 15 15 16 16 15 14 14 15 14 14 15 14 13 12 14 14 13 13 11 13 12 12 13 13 12 12 12 11 11 11 9 8 8 7 7 8 7 7 7 7 7 6 6 6 5 5 5 5 5 5 5 5 5 5 5 5 5 4 4 3 2 1 2 2 2 2 2 2 3 4 3 2 2
6 8 9 8 8 11 11 10 12 14 9 15 12 7 9 14 13 11 15 15 14 12 12 13 13 14 14 16 14 14 14 15 15 14 14 13 13 12 13 14 14 12 10 10 13 13 11 9 9 10 12 12 12 10 9 8 8 7 7 7 7 6 6 6 7 6 6 5 5 5 5 5 5 5 5 4 5 6 6 5 5 5 3 2 2 2 3 2 2 2 3 3 3 4 2 2 3
10 9 9 9 8 7 12 11 15 14 11 15 14 7 4 11 15 13 15 16 17 14 14 14 13 14 14 15 14 14 15 14 15 15 15 14 13 11 13 13 14 13 10 11 13 13 12 10 9 8 11 13 12 11 10 9 8 8 7 7 6 7 7 7 6 6 6 5 5 5 5 4 4 4 4 4 5 5 6 6 6 5 2 2 3 1 3 3 3 3 2 4 3 3 2 2 4
10 8 10 10 10 5 12 10 16 14 11 15 13 9 6 6 15 16 16 16 16 15 15 15 14 14 15 14 15 14 15 15 15 16 16 16 14 12 13 14 14 13 12 11 11 12 12 12 11 11 11 12 12 12 11 10 9 8 7 7 7 7 6 6 6 6 6 5 5 5 4 4 4 4 5 4 5 5 6 6 6 3 2 3 2 1 2 4 2 3 3 4 2 4 3 4 4
10 11 9 11 10 7 8 12 14 13 12 15 15 7 7 5 12 16 15 17 16 14 15 15 16 17 16 15 14 13 14 15 15 16 16 14 14 12 12 14 13 14 13 11 11 12 12 13 11 12 13 13 12 12 11 10 9 9 9 8 7 7 6 6 6 6 6 5 5 5 4 4 5 5 6 6 5 6 6 6 5 4 2 3 2 3 3 3 3 3 3 3 3 3 4 5 4
11 11 11 9 12 10 8 11 12 14 13 13 18 12 2 4 12 14 15 17 17 14 15 16 15 14 15 14 15 14 14 14 16 16 17 16 12 14 12 13 14 14 13 13 12 12 12 12 12 12 11 12 11 11 11 10 9 9 8 8 7 7 7 6 5 4 5 5 5 5 5 5 5 6 6 6 5 2 7 5 5 4 4 3 3 3 4 3 4 4 3 3 3 3 4 4 5
12 11 11 10 10 10 9 10 14 15 15 13 16 15 12 6 5 12 14 16 16 15 14 16 16 16 15 14 15 16 15 16 16 16 17 16 15 15 13 13 14 14 12 14 13 12 12 11 11 12 12 11 11 11 10 10 10 9 8 8 7 7 6 6 5 5 5 5 6 5 5 5 6 6 6 6 4 4 4 5 6 6 4 4 3 4 4 4 3 3 3 3 3 4 3 4 4
14 13 12 10 10 10 10 9 12 18 15 14 15 13 15 11 10 11 13 14 15 14 13 13 15 15 16 15 15 15 15 17 15 15 17 16 15 14 14 13 13 13 13 12 14 13 13 12 12 11 12 12 10 10 9 9 9 8 8 8 7 7 7 7 7 6 6 7 6 6 5 5 5 5 6 6 5 5 6 5 6 6 5 4 4 6 5 3 3 4 4 4 5 4 4 2 4
13 12 13 13 11 10 11 11 12 17 13 14 14 14 13 13 11 10 11 12 13 14 14 13 14 14 15 15 15 16 17 17 15 16 17 17 17 15 14 13 13 14 14 14 14 15 14 13 13 13 11 12 11 9 9 9 9 9 8 9 9 8 8 8 7 7 8 7 6 6 5 5 5 6 5 5 5 6 6 6 6 5 5 4 4 3 2 2 1 2 3 3 4 4 4 3 3
12 12 14 12 13 10 11 11 12 15 13 11 14 13 14 13 10 8 10 13 14 15 15 15 15 15 14 16 17 17 16 13 16 15 16 17 15 17 15 13 14 16 15 15 15 15 14 15 14 13 12 12 12 11 10 10 9 9 8 9 9 8 8 8 8 8 7 6 6 6 6 6 6 6 6 6 6 6 6 5 5 5 4 4 3 1 0 1 2 3 2 3 3 3 3 3 2
15 13 11 12 11 10 10 7 9 12 12 8 11 13 13 13 12 11 12 14 12 13 15 15 16 16 15 15 17 16 16 15 15 16 18 17 19 18 16 15 15 16 16 16 15 15 15 15 14 13 12 12 12 12 10 10 10 9 9 8 9 8 8 7 7 6 6 7 6 6 6 6 6 7 7 7 7 7 7 6 6 5 5 3 3 3 2 2 2 2 3 3 3 3 3 2 2
14 14 13 12 11 9 10 9 11 13 10 9 10 12 10 11 13 14 13 14 13 14 15 15 15 16 17 17 16 16 17 16 17 18 18 18 19 18 16 15 15 15 15 15 16 17 14 13 14 14 13 13 12 12 11 11 11 10 10 8 8 8 7 7 8 7 7 7 7 6 7 7 8 7 6 6 5 5 6 6 4 4 4 3 2 2 2 2 2 3 3 3 3 5 4 1 1
17 17 14 13 13 12 12 10 12 10 11 8 9 9 9 11 13 13 14 15 14 14 15 15 15 16 16 16 17 17 18 17 17 18 18 18 19 19 19 17 16 15 15 15 16 15 12 15 15 15 13 13 12 12 12 11 10 9 8 8 8 8 8 7 7 7 8 7 7 8 8 8 7 6 5 5 5 5 5 5 4 5 4 3 2 2 2 3 3 4 3 3 3 3 3 2 1
16 19 18 14 13 14 17 12 12 9 10 10 10 9 11 11 16 16 12 12 16 15 16 17 17 16 16 17 18 17 18 17 18 19 19 19 19 19 19 18 17 16 16 15 15 16 15 14 15 15 13 12 13 14 13 11 10 9 9 9 9 9 8 8 9 8 8 8 8 7 8 8 6 6 5 5 5 5 5 6 6 5 4 3 2 2 2 3 3 3 2 3 2 2 4 2 3
16 14 19 17 15 12 15 13 13 12 12 9 12 11 10 8 12 14 14 14 16 15 18 18 18 17 17 17 17 17 18 18 18 18 18 19 19 19 20 19 18 18 16 15 15 15 16 15 15 15 14 12 12 13 14 11 12 11 11 11 10 9 9 8 7 7 6 6 6 6 5 5 6 6 6 7 7 6 6 6 6 4 3 2 2 2 3 4 3 2 2 2 2 1 2 3 2
15 13 16 18 18 12 14 14 15 12 9 6 10 9 9 11 10 10 10 14 16 17 18 19 18 19 19 19 19 19 18 19 17 18 18 18 19 20 20 20 18 18 17 16 15 15 16 16 15 15 13 13 12 12 13 13 12 12 11 11 10 10 10 8 8 7 7 7 6 7 5 5 6 7 7 7 8 7 7 7 6 5 4 4 3 3 3 3 1 2 2 2 1 2 2 3 3
14 15 14 16 15 14 15 15 15 13 10 11 12 12 10 12 10 8 10 13 16 18 18 19 20 20 21 21 20 21 20 19 19 17 19 19 19 20 19 19 19 19 18 16 16 15 15 15 15 15 14 13 12 14 13 14 13 12 11 11 11 10 10 9 8 8 8 7 8 7 6 6 6 7 8 8 8 8 7 7 6 6 5 4 4 4 4 3 4 3 3 3 3 2 2 2 2
18 7 10 13 15 15 15 14 13 13 14 15 14 14 11 12 11 10 11 13 13 17 18 19 20 21 21 20 21 21 19 18 19 19 18 19 19 19 19 19 19 18 17 16 16 15 15 14 15 16 16 13 13 14 13 14 14 12 12 12 12 11 9 9 9 8 8 7 8 8 7 6 6 7 8 8 8 8 8 7 7 7 6 6 5 5 4 4 4 4 4 4 3 2 1 2 2
10 11 11 12 13 13 13 12 13 14 18 16 17 16 14 12 11 12 11 11 14 12 11 13 16 19 20 20 21 19 19 19 18 19 19 19 19 19 19 19 18 18 17 17 16 15 15 15 16 16 16 13 14 14 15 15 14 13 12 13 13 13 13 11 10 9 8 8 8 8 7 7 7 8 8 7 8 9 9 8 8 7 7 6 5 4 5 5 5 4 4 3 3 3 2 3 3
13 9 12 10 10 7 8 9 9 13 14 13 18 17 16 14 12 11 10 14 13 12 12 11 15 19 19 18 18 20 20 18 18 18 19 19 18 19 18 19 19 19 18 18 17 16 15 15 14 16 16 16 14 14 15 15 14 14 14 14 14 13 13 11 11 11 10 9 9 8 8 7 8 8 8 7 8 10 9 8 8 8 6 6 6 5 5 4 4 3 3 3 3 3 3 3 3
15 14 14 15 10 9 12 12 14 15 14 14 17 19 15 17 15 10 6 9 11 12 11 11 9 15 18 19 20 18 18 19 18 17 17 17 18 18 19 19 18 19 18 19 18 17 16 15 16 16 16 16 15 15 16 16 15 15 14 14 14 12 13 13 12 12 11 11 9 10 9 8 8 8 8 8 9 10 9 8 8 7 6 6 5 5 4 4 4 3 4 4 4 4 4 4 4
17 17 15 15 16 14 12 13 10 11 14 17 13 14 15 10 12 16 18 15 14 13 13 13 9 7 13 17 18 17 18 19 19 18 18 18 17 18 19 18 18 17 19 19 18 17 15 14 16 17 17 16 15 15 16 16 16 15 14 13 12 12 13 13 13 12 11 10 10 10 10 9 9 9 9 9 8 9 9 8 8 8 7 6 6 6 5 5 5 5 5 5 6 5 5 5 5
17 17 17 15 15 14 13 12 14 13 11 14 15 11 11 13 9 11 13 16 15 15 15 13 9 10 10 14 16 19 20 20 18 18 19 19 19 20 18 18 18 17 19 19 17 17 15 15 16 17 17 17 17 16 15 16 15 15 14 13 12 13 13 13 12 11 11 11 10 11 10 9 8 8 8 9 8 8 9 8 8 8 7 7 7 6 6 6 6 6 5 6 6 5 6 5 5
17 16 15 17 18 13 16 12 13 12 12 14 14 11 9 12 6 4 4 5 8 9 11 10 10 10 10 12 15 16 17 19 19 19 20 20 20 19 18 18 18 17 19 18 18 16 16 16 16 17 17 17 16 16 16 16 15 13 15 14 15 15 12 12 11 11 10 11 11 10 9 9 8 8 8 8 8 8 9 9 9 9 8 8 7 7 7 7 7 7 6 6 7 5 5 6 6
14 16 20 17 13 18 16 14 18 14 14 17 10 9 12 11 11 13 13 13 13 12 12 12 11 11 12 13 15 17 17 18 19 20 19 20 20 20 19 19 18 19 18 18 18 18 19 17 16 17 17 16 17 17 16 15 15 15 16 16 15 16 16 15 13 13 13 12 11 10 9 9 8 7 7 7 8 8 8 8 8 8 8 8 8 8 8 7 7 7 7 7 6 6 6 6 6
10 18 17 15 16 15 15 16 10 12 17 13 13 14 12 14 13 12 19 20 19 17 16 15 12 11 14 14 15 16 18 18 19 19 19 21 22 23 21 20 21 20 20 20 20 19 18 18 18 18 17 18 17 17 17 16 16 16 15 16 16 16 15 15 13 12 12 11 9 9 9 8 9 8 7 7 8 9 9 9 8 8 8 9 8 8 8 8 8 7 7 6 6 6 6 5 6
18 13 14 17 13 16 15 13 18 18 19 13 14 17 15 15 13 9 9 12 15 15 14 11 9 12 15 15 16 16 17 16 17 19 18 18 19 19 20 21 22 21 20 20 19 19 17 17 18 18 19 19 19 16 15 14 15 13 13 15 17 17 14 12 13 13 12 12 11 9 9 8 8 8 8 8 8 8 9 9 9 9 9 9 9 8 8 8 8 7 6 6 7 6 6 7 6
23 14 13 17 14 15 15 15 12 13 16 15 17 19 15 13 14 13 13 11 9 6 7 6 8 11 13 12 13 15 16 16 17 17 18 18 20 22 22 22 22 21 20 19 20 18 20 19 18 18 18 17 17 17 15 15 15 14 13 14 16 16 13 13 14 13 13 12 11 10 10 9 9 9 8 9 9 9 9 10 10 10 10 10 10 9 9 8 8 7 6 6 6 7 7 7 7
19 17 14 14 14 10 13 16 18 16 16 16 13 15 13 12 11 16 16 13 11 12 13 12 11 12 12 12 12 13 15 16 16 17 18 20 21 21 21 21 20 20 19 19 19 20 20 18 19 20 19 19 19 18 17 15 14 15 15 15 15 14 15 15 15 13 14 11 10 10 10 10 9 9 10 11 11 11 11 11 11 10 10 9 9 9 8 8 8 8 7 6 7 7 8 8 7
17 16 18 16 14 16 19 19 17 18 17 13 15 17 10 8 10 11 13 15 15 14 14 14 15 16 13 11 12 12 13 16 17 17 18 18 18 19 19 18 18 19 19 20 19 19 20 20 19 19 19 19 19 18 16 15 14 14 16 15 15 15 15 14 14 15 16 12 11 11 11 11 11 11 10 11 10 10 11 12 11 10 9 9 9 9 9 8 8 8 8 7 7 8 8 8 7
Wind_Direction
159 180 186 204 224 243 285 216 240 165 191 90 104 115 92 90 109 125 100 139 121 65 93 106 100 132 325 59 84 100 53 163 29 323 79 103 128 115 116 127 125 126 122 133 136 140 145 155 152 147 142 137 131 130 131 131 129 132 136 130 131 132 132 131 124 117 112 105 98 95 92 90 88 85 87 90 89 87 87 86 84 81 76 73 71 68 63 61 59 56 56 53 52 51 45 39 39
168 183 197 196 218 244 196 120 245 112 116 101 72 100 103 110 151 103 113 92 72 111 103 96 93 93 101 102 105 117 73 35 328 92 89 107 118 110 116 129 131 134 135 141 140 145 149 147 142 142 139 133 127 127 129 128 129 129 130 129 129 126 128 130 126 120 112 105 101 99 98 95 93 92 93 94 93 91 89 85 83 79 77 73 70 68 64 60 56 51 52 50 47 46 46 39 34
170 186 190 213 238 250 301 201 306 88 88 85 86 78 130 120 98 95 91 94 105 116 113 100 102 110 115 134 116 294 85 75 102 109 109 123 121 126 132 136 133 138 136 143 146 143 140 135 142 140 138 133 125 119 119 131 134 133 134 131 128 129 130 132 127 119 110 106 106 104 100 99 98 99 98 95 91 89 88 84 82 80 78 74 70 65 62 59 54 49 46 48 44 41 40 36 32
181 205 223 218 282 214 230 208 73 71 74 86 101 98 89 94 92 90 97 106 113 125 130 135 106 360 191 124 80 84 98 109 92 114 124 144 108 128 133 132 132 130 135 144 145 138 135 131 138 139 140 132 126 131 128 134 138 142 138 136 134 135 135 131 124 117 112 112 113 107 104 102 101 100 98 91 89 86 82 80 76 74 71 70 68 64 60 59 54 44 45 44 43 42 32 31 27
192 198 257 260 294 165 327 66 22 57 75 59 86 97 95 101 105 111 108 114 121 122 124 113 112 62 55 75 195 76 92 106 107 102 108 100 118 127 130 131 134 135 139 138 138 135 126 133 139 130 139 139 139 144 142 148 150 145 140 136 138 138 136 131 126 121 124 125 121 115 110 108 105 102 94 90 86 82 78 76 75 72 69 68 68 62 57 55 52 50 44 40 29 24 29 28 25
194 206 212 260 278 12 256 169 76 65 47 58 110 108 108 110 123 118 120 129 115 123 115 174 96 151 117 64 41 115 135 146 121 121 119 120 124 130 131 145 137 139 134 134 136 135 137 128 138 138 134 147 141 140 141 153 148 147 140 139 140 139 138 136 134 133 134 130 126 125 120 115 109 100 91 88 87 82 81 79 79 76 72 65 64 62 57 47 45 42 40 35 29 26 20 20 16
178 217 205 225 243 219 13 73 76 78 69 10 88 116 130 126 125 135 131 127 126 114 178 106 110 126 120 107 85 70 65 106 144 124 122 128 127 133 142 136 135 133 138 134 135 136 127 135 136 133 137 141 143 139 139 148 152 150 150 144 143 142 140 138 137 137 136 133 134 131 125 120 113 101 93 88 83 82 83 83 78 74 68 64 61 55 51 46 46 41 36 40 25 22 14 15 11
210 263 30 273 127 237 81 73 58 52 80 40 74 106 119 132 138 148 144 156 145 158 140 131 151 72 89 147 99 94 109 93 95 108 116 130 132 138 142 135 133 136 138 133 140 123 126 139 130 135 144 140 145 145 146 154 154 154 150 146 150 145 144 141 140 140 138 138 141 134 132 124 112 103 97 91 87 83 77 74 74 71 67 64 58 55 52 43 41 43 42 49 32 10 7 6 360
191 266 255 272 190 149 82 62 78 68 94 93 75 73 98 127 158 149 158 125 136 123 141 152 137 140 128 122 99 107 99 111 114 114 128 132 136 139 139 136 131 132 138 140 126 133 135 137 140 144 142 145 145 147 150 151 160 154 150 152 154 150 147 145 144 144 145 147 145 143 134 126 115 109 102 99 94 86 78 73 71 68 63 60 54 52 44 39 34 35 45 51 39 9 2 2 354
209 254 211 298 340 68 86 103 91 60 75 76 98 122 132 143 148 179 135 151 133 141 122 123 219 108 126 110 122 144 119 125 127 131 132 134 137 138 134 133 133 137 138 135 133 131 132 143 144 148 151 151 152 153 151 157 164 156 157 158 159 151 151 151 150 151 153 152 150 145 138 130 121 113 110 107 103 97 86 72 66 65 59 54 51 46 40 35 21 22 26 28 22 7 356 348 344
218 200 277 253 91 73 70 89 100 123 95 112 97 115 137 135 152 155 168 122 142 126 128 149 129 125 129 113 82 87 121 132 139 134 137 135 136 139 131 129 135 138 137 133 132 128 133 143 145 152 155 152 151 155 161 160 156 156 159 169 157 157 156 153 157 157 153 154 150 144 135 130 125 119 117 113 109 99 86 71 63 59 57 52 51 50 45 12 347 356 359 7 359 356 352 341 335
233 206 199 289 75 56 70 76 101 95 112 133 114 139 137 145 161 154 144 148 150 140 141 171 127 136 126 127 122 131 136 146 133 135 139 139 141 134 132 134 139 141 140 137 135 137 140 145 151 156 160 160 155 156 159 159 157 162 173 167 160 160 159 159 158 157 154 153 148 144 138 130 128 125 118 114 104 93 78 76 61 59 53 53 52 50 68 341 318 351 346 358 355 351 346 337 322
267 210 221 276 84 80 78 77 66 109 126 142 130 147 151 157 173 142 153 145 156 150 149 140 135 147 135 128 125 138 153 144 136 143 141 144 136 138 138 137 140 139 137 139 141 144 148 152 152 158 160 153 155 161 164 165 164 165 180 165 164 163 161 159 159 155 155 152 145 140 141 137 134 134 129 116 110 87 76 57 56 52 49 49 52 54 70 360 337 345 340 352 346 4 346 331 321
246 263 290 225 262 115 104 85 112 156 121 113 127 143 159 166 175 147 153 152 151 158 122 131 157 142 112 120 147 154 150 149 145 145 147 140 141 140 137 138 138 136 140 139 134 140 144 150 150 152 153 159 160 165 174 173 168 170 172 168 167 165 161 159 160 159 156 152 151 151 152 159 156 149 150 143 133 124 121 73 65 55 46 38 49 63 56 323 336 316 312 325 323 332 331 322 318
249 113 247 266 157 149 101 119 138 137 102 146 123 153 154 124 144 157 163 150 128 86 119 154 127 158 152 159 155 159 154 156 149 146 140 138 142 139 140 139 136 139 143 144 141 147 151 152 150 152 159 157 158 164 165 168 169 172 168 170 166 163 163 164 161 160 159 160 160 168 171 176 175 169 157 167 155 177 100 211 86 57 31 39 52 71 110 265 265 263 275 303 301 305 296 295 303
253 246 251 262 209 185 143 82 143 114 107 153 142 145 159 127 168 166 150 134 118 131 156 146 187 340 144 175 152 150 150 155 150 145 141 142 140 140 142 144 140 142 143 147 148 156 156 153 150 157 158 157 162 161 161 163 166 169 169 166 167 169 168 165 167 165 166 169 176 176 185 191 186 185 171 191 180 176 141 350 44 28 16 19 34 55 100 193 227 220 240 244 260 260 252 265 290
223 262 241 241 246 215 134 145 143 94 115 145 151 159 163 152 164 121 91 166 152 149 181 142 154 150 165 128 147 145 146 149 149 146 145 146 150 148 150 149 149 148 151 154 158 159 155 152 155 155 157 159 161 158 160 165 159 169 169 169 173 173 171 170 169 174 176 179 185 182 192 226 206 195 171 211 150 202 102 154 54 29 7 12 40 63 86 68 47 154 208 217 218 226 224 226 198
213 223 236 243 67 183 123 138 153 84 147 144 166 163 157 157 169 144 176 171 159 154 165 151 110 157 135 125 141 145 148 153 154 156 155 154 160 153 158 157 161 157 160 158 161 165 156 156 158 158 156 161 161 160 163 169 158 181 173 170 176 173 174 176 178 193 191 190 197 184 220 208 218 198 223 216 236 205 176 100 57 358 2 30 38 44 83 108 119 83 164 219 264 241 239 242 165
218 222 234 330 127 95 126 146 153 160 142 155 165 169 166 155 175 156 184 171 161 168 163 159 145 115 123 140 142 150 153 159 160 164 161 161 165 161 161 160 166 161 164 163 162 167 163 158 162 163 159 163 166 167 164 170 167 177 177 177 171 181 180 190 196 199 201 204 197 209 215 222 215 229 228 286 326 5 286 319 218 241 225 235 234 281 157 146 159 159 178 214 211 222 231 33 308
222 268 208 233 80 98 183 167 159 223 138 161 166 168 179 146 178 156 202 168 174 186 163 172 162 145 145 144 152 154 160 163 167 167 167 166 169 167 165 164 166 169 168 167 163 166 167 166 166 166 164 166 171 171 170 171 169 174 179 178 180 182 186 192 200 200 201 204 203 215 222 213 237 232 231 221 242 241 209 188 200 213 202 186 194 238 170 160 182 169 166 202 204 218 338 321 2
175 228 232 140 91 267 185 208 172 185 156 162 165 161 176 156 173 178 193 175 188 198 178 178 170 155 151 154 157 158 164 167 172 174 171 171 172 173 170 170 171 168 172 165 164 170 172 170 170 170 169 171 179 174 177 174 169 180 179 183 183 185 189 189 192 197 202 208 211 216 226 226 239 249 231 255 263 282 293 295 214 208 77 67 169 322 280 64 238 30 181 222 344 281 304 354 344
230 227 235 268 107 274 119 209 178 182 174 162 164 171 171 158 172 193 190 194 178 196 174 185 166 157 155 159 161 163 168 170 176 177 177 176 174 174 171 171 175 171 170 176 174 170 175 177 178 171 173 181 185 185 181 171 177 183 182 186 186 189 191 196 197 197 200 204 216 224 236 221 236 242 245 249 260 257 272 274 278 264 248 242 168 307 8 333 320 20 333 337 331 327 333 340 334
232 215 240 247 246 275 77 211 184 183 182 172 174 173 151 175 178 194 191 201 54 179 163 176 161 161 160 159 162 168 169 174 178 181 179 181 175 180 171 177 179 178 179 183 179 179 177 182 184 181 179 183 188 189 187 181 187 188 189 189 193 193 197 199 204 203 205 201 216 234 237 230 234 243 237 237 250 258 260 261 268 271 252 267 6 292 316 292 313 331 342 327 332 312 316 316 288
228 239 206 219 227 244 212 239 174 195 189 185 167 161 170 177 184 181 198 183 80 135 155 160 157 162 162 164 168 171 173 178 179 181 182 183 181 181 179 183 181 182 185 185 182 184 183 185 185 188 185 189 187 191 195 191 189 194 191 186 208 198 207 205 207 207 205 205 214 227 241 258 251 245 247 248 250 258 263 282 285 280 272 266 347 290 290 327 323 320 321 323 294 297 298 296 302
219 236 237 244 231 238 237 236 190 199 200 173 169 174 180 181 170 170 196 174 119 151 149 157 156 162 169 169 170 173 174 179 178 182 185 186 186 185 183 186 185 185 192 190 184 185 187 187 183 189 188 190 191 192 197 197 195 200 196 198 204 196 215 218 216 214 208 216 207 221 237 250 251 254 255 256 264 272 278 276 275 273 287 286 281 275 288 308 295 315 325 316 313 301 294 292 317
216 227 229 236 237 241 233 225 204 199 198 179 179 182 173 183 141 184 181 168 158 149 152 159 160 164 172 174 172 173 177 183 180 181 187 184 186 190 191 191 190 195 192 192 188 186 186 186 189 189 191 189 194 198 199 199 198 200 203 207 205 203 216 221 215 222 222 221 219 214 228 245 258 261 260 265 262 262 269 266 261 262 277 284 270 277 292 285 301 311 316 310 305 298 307 322 301
152 219 229 237 242 245 224 229 211 196 200 179 187 184 175 164 174 169 178 160 158 161 163 162 166 170 175 176 176 175 180 182 184 181 185 188 190 195 198 198 197 198 191 195 192 191 185 189 189 190 191 193 195 205 200 203 204 208 206 209 209 211 214 217 221 229 231 226 227 218 220 233 251 258 264 270 267 261 260 262 264 271 266 274 278 285 290 298 309 315 325 312 307 297 296 307 296
245 265 246 248 255 247 244 230 219 187 192 184 196 183 165 169 203 198 168 162 168 170 167 168 173 175 175 179 178 176 184 184 185 184 186 188 191 194 196 199 200 197 194 197 194 192 191 193 191 189 193 191 200 206 202 207 207 211 211 214 216 217 216 220 219 224 227 235 234 229 225 235 242 257 263 266 268 270 268 269 267 265 272 265 277 295 298 303 295 304 305 302 297 290 296 282 308
232 216 238 220 233 239 223 224 203 181 180 184 187 163 185 190 202 184 153 159 172 174 171 173 177 177 177 180 179 181 187 187 187 190 193 191 197 193 196 198 197 197 196 196 197 195 198 195 193 192 196 192 200 208 204 209 208 210 211 215 217 215 219 221 225 222 225 230 228 233 244 242 245 255 262 268 275 274 275 276 273 267 263 268 277 304 292 280 287 267 265 272 282 288 286 306 262
229 222 250 228 225 235 207 211 185 189 161 183 162 203 211 205 200 175 155 164 170 175 178 178 180 179 179 181 183 183 187 187 192 195 195 196 198 197 201 198 199 198 197 193 200 200 203 195 197 195 197 198 199 208 209 210 213 213 216 216 217 217 219 222 224 226 224 230 224 221 233 238 245 252 260 268 277 279 274 267 270 270 270 277 268 257 267 285 284 283 284 280 285 282 306 311 307
221 223 231 247 231 229 174 189 169 194 155 182 182 231 203 184 188 164 164 167 172 179 182 182 182 182 181 185 185 185 187 191 194 194 196 198 196 201 202 201 196 199 199 196 197 199 200 198 198 198 196 201 199 209 209 217 217 223 218 222 221 221 225 224 224 221 221 225 228 220 217 229 233 239 247 264 272 278 274 265 262 257 249 252 265 250 291 283 273 274 290 289 300 287 294 316 294
222 215 216 226 241 170 156 181 176 189 152 186 197 235 234 149 168 164 169 172 179 184 184 185 184 184 183 186 190 188 188 192 198 197 197 198 197 201 199 198 195 197 200 197 194 196 200 201 196 202 192 201 200 206 211 215 219 222 228 226 229 218 229 228 229 232 226 222 228 233 211 218 225 222 240 246 257 256 261 264 254 253 234 260 267 270 265 266 272 285 288 283 270 298 314 292 292
211 225 220 214 209 160 170 183 188 187 159 182 202 221 208 199 154 166 173 175 183 189 188 188 188 187 185 186 191 191 188 192 197 200 199 199 197 201 197 197 196 196 197 196 196 194 199 201 199 206 201 198 204 204 208 212 216 219 223 228 226 226 229 230 226 229 228 226 224 230 212 221 229 226 230 229 232 239 254 259 263 249 239 248 239 244 252 260 266 261 265 271 296 293 288 294 297
210 209 240 224 210 182 207 159 194 187 175 182 200 226 229 55 154 172 179 180 185 193 190 190 192 190 188 189 191 190 192 193 196 198 199 197 197 198 199 196 197 197 198 199 199 198 200 201 203 207 209 202 201 206 207 210 213 218 220 225 227 230 227 229 226 219 225 230 226 225 218 219 229 231 229 222 230 202 255 247 256 248 234 234 233 237 250 261 260 265 262 248 276 300 295 309 309
203 202 220 219 232 214 194 174 178 195 189 200 195 217 223 167 179 183 184 187 191 197 193 192 194 193 191 192 194 193 192 196 198 196 196 196 198 195 199 195 200 199 201 200 201 201 205 205 206 206 212 212 203 203 203 209 213 215 221 223 218 216 226 229 224 213 229 229 230 224 213 225 228 232 234 227 225 200 226 234 235 229 236 225 223 225 237 253 263 255 257 256 247 264 293 292 309
220 210 216 230 216 198 225 186 173 193 185 206 198 211 219 191 167 193 185 189 199 204 202 197 195 195 193 195 196 196 195 200 197 194 197 193 197 194 196 197 199 201 203 200 202 203 204 206 208 207 209 211 211 203 201 207 210 210 212 212 214 216 216 216 215 219 221 225 225 221 218 224 228 232 234 227 178 207 228 230 254 227 217 218 221 243 241 228 238 259 253 259 264 259 237 271 265
224 220 224 230 230 217 201 204 179 191 195 205 209 213 222 222 201 185 190 188 198 205 207 205 202 199 198 199 199 200 199 202 193 192 194 194 194 193 195 196 199 201 201 201 202 204 205 207 205 210 207 208 209 204 204 207 207 208 210 214 219 214 217 212 213 218 225 229 226 213 206 220 219 222 225 226 202 219 230 234 223 212 214 216 237 239 250 314 348 299 292 269 279 278 259 230 244
229 226 224 230 231 225 182 191 179 194 207 203 212 220 223 227 225 190 191 195 200 202 205 209 208 205 202 201 202 202 203 203 194 189 193 195 196 194 195 198 200 201 201 202 202 204 205 207 208 208 207 208 211 212 212 212 212 213 212 217 223 223 217 216 216 217 220 225 207 202 202 214 210 204 210 214 215 217 222 222 213 210 204 208 208 156 86 198 229 244 256 264 235 269 276 281 308
225 234 227 233 220 226 135 181 190 193 212 226 201 223 225 224 218 209 205 204 207 207 208 209 209 209 205 203 204 203 204 202 195 192 192 196 197 197 196 200 202 206 204 204 205 204 205 208 210 209 210 209 211 211 212 214 215 217 219 221 224 228 225 229 235 235 234 231 217 207 211 209 209 208 207 208 220 219 223 215 208 204 200 165 171 187 201 214 227 244 238 253 255 221 271 281 274
228 224 233 225 223 195 187 195 190 197 208 216 215 230 235 233 232 227 218 215 210 210 211 212 210 212 209 205 203 204 205 200 197 193 194 196 197 199 198 200 202 203 205 205 205 207 207 208 209 210 212 213 214 212 211 214 215 215 218 224 225 234 235 227 237 235 232 230 224 215 209 212 217 230 226 227 230 236 228 222 212 185 174 168 191 207 202 221 197 220 226 226 265 280 238 212 258
224 233 229 232 214 201 213 184 200 193 210 243 221 234 242 236 234 227 221 221 219 211 211 213 212 213 214 212 208 205 205 200 199 197 197 195 197 199 199 199 200 201 203 205 205 205 206 207 208 209 211 212 213 211 208 211 210 208 206 212 223 225 233 234 232 229 224 226 230 215 217 218 225 234 232 223 224 226 226 216 200 185 181 180 178 213 223 226 215 221 223 231 235 284 298 286 235
221 223 233 234 219 205 213 185 194 202 211 209 215 237 242 224 229 237 231 214 217 211 211 210 207 209 208 212 212 208 209 202 199 199 199 198 198 198 199 199 202 202 204 205 204 205 205 206 207 208 211 212 212 212 209 208 211 209 199 208 217 225 228 223 224 225 223 220 228 226 216 219 225 225 216 216 214 216 210 207 197 196 193 187 195 235 239 245 234 247 207 246 240 232 290 297 287
225 213 218 230 238 221 215 191 200 214 226 198 208 245 246 240 230 227 225 227 217 211 212 211 205 204 205 208 209 208 207 204 202 203 201 201 198 198 199 200 202 204 204 203 203 204 204 207 206 206 209 210 210 210 207 210 216 218 220 222 223 223 225 225 225 231 235 226 225 229 222 204 208 213 207 207 209 206 206 202 197 204 200 206 208 226 228 233 221 213 218 220 245 230 230 271 269
228 220 209 220 231 227 211 200 216 233 228 197 215 227 251 251 240 240 224 230 226 217 215 213 207 204 204 204 206 206 206 206 202 203 202 203 199 199 200 198 201 205 203 202 203 204 205 206 206 207 209 211 208 207 207 209 218 217 218 222 224 226 226 226 215 219 223 229 222 227 216 206 203 212 213 203 205 199 199 198 199 204 203 223 214 220 239 247 254 213 217 219 215 206 218 255 280
229 225 215 211 218 221 220 209 222 230 238 236 224 218 242 254 252 235 216 220 218 222 220 215 213 209 205 203 204 205 205 204 204 201 202 200 199 199 199 199 201 205 203 202 203 204 205 206 208 208 210 210 210 206 205 208 214 216 217 220 223 224 226 227 221 216 220 218 223 216 215 207 197 210 215 209 205 202 197 199 199 202 207 217 215 224 223 209 213 219 210 202 205 204 220 247 256
224 274 207 212 213 223 227 222 223 231 231 233 225 214 238 247 241 221 212 229 228 230 224 220 213 210 208 206 203 203 202 202 204 205 203 200 198 196 197 198 199 202 204 203 204 203 204 204 206 208 210 210 209 206 206 208 209 211 215 219 222 222 222 225 226 216 215 215 219 216 206 201 209 206 215 214 206 206 200 198 202 207 212 221 216 225 221 223 213 220 213 219 222 225 199 223 244
217 217 218 215 217 223 222 228 217 221 230 228 228 214 217 250 237 219 207 217 226 237 230 225 219 212 210 208 203 199 199 199 201 203 202 201 198 195 193 196 196 198 202 201 203 204 203 204 205 207 208 208 206 207 208 211 209 209 213 216 220 222 221 222 221 220 217 213 216 214 209 205 215 216 213 203 213 209 202 202 205 209 223 222 217 226 222 223 207 205 213 200 205 222 204 212 230
213 212 213 211 217 224 231 227 233 242 231 223 231 233 201 242 242 243 212 227 235 241 245 227 222 215 207 206 206 202 198 197 197 200 201 199 198 196 193 194 193 193 194 197 200 200 203 204 203 205 206 205 204 204 206 211 211 210 213 215 221 224 225 223 220 220 213 213 216 216 215 214 216 216 217 210 210 211 208 211 216 220 221 221 218 219 227 222 238 194 196 190 198 206 208 225 236
213 221 215 211 194 200 212 214 214 225 236 222 223 233 220 224 252 266 226 222 231 237 250 261 241 212 202 201 204 202 198 195 195 197 198 197 196 195 194 191 189 189 191 193 196 199 200 201 201 202 205 202 203 203 205 207 210 211 211 214 219 226 228 227 224 223 216 218 217 216 210 209 210 214 210 216 212 214 205 211 214 219 216 218 219 217 218 228 236 218 192 200 205 202 211 216 220
209 213 209 205 218 207 222 212 226 234 220 241 237 227 241 245 239 236 251 241 231 248 259 260 257 240 201 201 198 200 199 195 195 193 194 196 195 194 194 192 189 188 190 190 194 198 196 198 199 202 204 200 199 202 203 206 209 210 211 212 215 223 226 228 227 223 219 216 215 218 217 213 213 215 220 217 212 204 205 206 211 214 212 208 212 217 219 212 214 218 202 209 207 210 219 216 230
208 213 214 215 222 215 216 217 217 221 233 215 206 222 225 234 227 237 235 241 251 252 257 258 240 226 218 202 198 197 199 198 193 191 193 193 191 191 192 193 191 190 190 191 192 195 194 196 197 200 202 200 198 199 200 205 206 206 205 207 214 221 224 224 225 225 223 219 217 218 219 222 224 221 221 216 199 193 198 202 206 212 203 204 208 211 210 208 206 210 215 209 221 206 216 225 230
207 213 224 222 220 222 233 223 227 226 224 231 198 220 223 237 242 182 219 238 249 258 257 250 232 216 211 202 201 200 198 198 195 192 192 191 187 188 191 192 193 193 192 193 193 191 195 196 198 199 201 199 198 198 201 202 203 203 203 204 212 219 221 223 223 222 222 217 214 216 217 221 225 224 220 199 189 189 194 196 203 205 198 200 206 207 208 208 202 209 212 212 220 210 219 225 239
189 208 217 221 219 230 232 242 243 245 231 236 212 210 228 246 253 241 248 252 251 248 245 235 231 211 202 203 202 201 199 197 196 195 192 188 185 188 190 190 191 193 194 195 192 191 194 194 196 198 199 199 198 199 201 201 202 202 203 205 210 216 219 221 222 221 222 216 211 215 219 221 220 199 193 189 189 188 192 200 200 201 197 203 204 202 206 213 206 210 210 213 219 223 219 234 245
194 212 214 219 230 240 233 233 200 224 233 231 223 219 227 224 240 228 235 242 244 243 248 243 229 207 204 205 202 200 201 199 197 197 194 189 188 189 189 190 190 191 192 193 192 192 192 194 195 195 196 198 200 199 199 199 201 204 204 205 209 214 216 220 222 222 219 215 200 205 213 215 211 191 192 188 190 193 193 197 201 203 201 204 206 200 203 208 208 213 213 214 219 229 230 231 240
228 220 195 217 187 216 227 235 228 220 225 241 230 235 235 229 232 215 205 221 222 229 235 244 225 209 212 210 204 203 202 199 197 198 196 196 194 191 190 191 191 191 190 191 192 191 192 194 196 197 197 198 199 200 200 201 201 202 205 204 208 213 210 215 220 220 216 213 196 190 196 199 195 188 187 188 190 195 198 196 202 203 203 204 204 205 200 205 205 213 213 216 218 227 236 238 238
226 235 222 213 229 223 215 217 239 243 240 230 237 234 234 219 238 223 214 209 220 224 261 274 263 235 216 212 203 198 197 199 198 197 197 197 198 196 193 191 191 190 189 190 192 194 196 194 195 199 199 197 197 198 197 200 200 202 201 201 206 208 204 216 221 217 214 206 190 185 183 175 184 184 187 186 190 199 202 203 202 206 204 204 203 205 202 204 206 213 218 223 224 219 230 237 242
204 212 221 211 219 221 230 229 223 231 239 244 247 236 229 219 225 231 228 227 227 248 255 255 259 265 245 213 204 199 197 195 197 197 198 199 200 200 197 193 191 189 188 192 193 196 199 196 196 197 197 198 198 198 198 198 198 200 200 198 197 198 204 214 220 214 215 196 182 177 181 180 179 185 187 188 190 193 200 206 209 205 207 205 206 209 206 204 207 213 219 233 252 245 240 243 237
205 203 213 219 204 208 219 227 220 225 235 230 239 246 246 206 205 217 223 238 238 239 253 260 263 258 250 225 207 199 195 196 196 198 200 202 201 200 197 192 191 190 190 194 196 196 199 200 199 198 199 200 201 199 199 197 197 196 197 196 195 193 200 205 208 213 213 191 179 180 178 177 184 189 184 188 196 196 197 200 205 207 212 212 209 215 216 210 209 213 219 226 237 239 244 244 246